User: anonymous   Login
Location: Arrington
(35.8681°N, 86.7092°W)
Time: 10:47:46
(UTC+00:00)
Language:

STARLINK 1023 - Orbit

View from above orbital plane
View from above orbital plane
View from above satellite
View from above satellite

Ground track
Ground track

The orbit data is extracted from the following two-line orbital elements,

1 44728U 19074R   20029.25001157  .00859204  00000-0  55531-2 0  9999
2 44728  53.0061 139.5124 0006676   0.2944  81.5741 15.73072928 12396
Epoch (UTC): 29 January 2020 06:00:01
Eccentricity: 0.0006676
inclination: 53.0061°
perigee height: 345 km
apogee height: 354 km
right ascension of ascending node: 139.5124°
argument of perigee: 0.2944°
revolutions per day: 15.73072928
mean anomaly at epoch: 81.5741°
orbit number at epoch: 1239

The dashed part of the orbit path shows where the satellite is in the earth's shadow,  

DLR